Location: Dodge City Community College Clyde Tombaugh Astronomy Center
(37.7756°N, 100.0412°W)
Time: 01:09:31
(UTC+00:00)

Cosmos 2228 Rocket - Pass Details

Date: 01 July 2022
Orbit: 618 x 651 km, 82.5° (Epoch: 16 August)

Event Time Altitude Azimuth Distance (km) Brightness Sun altitude
Rises 09:43:43 0° 7° (N) 2,913 7.4 -15.9°
Reaches altitude 10° 09:46:20 10° 22° (NNE) 2,006 6.8 -15.6°
Maximum altitude 09:49:54 23° 75° (ENE) 1,331 5.5 -15.1°
Drops below altitude 10° 09:53:29 10° 129° (SE) 2,010 5.7 -14.6°
Sets 09:56:06 0° 143° (SE) 2,920 6.4 -14.3°
